^^

Weather Underground History

Daily Summary for February 24, 2018 Units:  Metric    English   Both
Daily Weekly Monthly Yearly
  High: Low: Average:
Temperature: 16 °C 7 °C 10.6 °C
Dew Point: 11 °C 6 °C 8 °C
Humidity: 93% 60% 85%
Wind Speed: 18km/h 0km/h 7.9km/h
Wind Gust: 40km/h - -
Wind- - West
Pressure: 1011.3 hPa 1008.4 hPa -
Precipitation: 5.1 mm    
 
 
Tabular Data for February 24, 2018
Time Temperature Dew Point Pressure Wind Wind Speed Wind Gust Humidity Rainfall Rate (Hourly) solar
00:04 10 °C 8 °C 1010.2 hPa West 6 km/h 11 km/h 86% 0.0 mm 0 W/m2
00:09 9 °C 8 °C 1010.2 hPa West 6 km/h 13 km/h 87% 0.0 mm 0 W/m2
00:14 9 °C 8 °C 1010.2 hPa West 8 km/h 14 km/h 87% 0.0 mm 0 W/m2
00:19 9 °C 8 °C 1010.3 hPa West 8 km/h 14 km/h 87% 0.0 mm 0 W/m2
00:24 9 °C 7 °C 1010.3 hPa West 8 km/h 14 km/h 87% 0.0 mm 0 W/m2
00:29 9 °C 8 °C 1010.2 hPa WSW 10 km/h 14 km/h 88% 0.0 mm 0 W/m2
00:34 9 °C 8 °C 1010.2 hPa WSW 10 km/h 16 km/h 88% 0.0 mm 0 W/m2
00:39 9 °C 8 °C 1010.2 hPa West 9 km/h 16 km/h 88% 0.0 mm 0 W/m2
00:44 9 °C 8 °C 1010.2 hPa West 10 km/h 16 km/h 88% 0.0 mm 0 W/m2
00:49 9 °C 8 °C 1010.3 hPa West 8 km/h 13 km/h 88% 0.0 mm 0 W/m2
00:54 9 °C 7 °C 1010.3 hPa West 8 km/h 11 km/h 88% 0.0 mm 0 W/m2
00:59 9 °C 7 °C 1010.2 hPa West 8 km/h 13 km/h 88% 0.0 mm 0 W/m2
01:04 9 °C 7 °C 1010.3 hPa West 9 km/h 18 km/h 88% 0.0 mm 0 W/m2
01:09 9 °C 7 °C 1010.3 hPa West 8 km/h 18 km/h 88% 0.0 mm 0 W/m2
01:14 9 °C 7 °C 1010.4 hPa West 9 km/h 16 km/h 88% 0.0 mm 0 W/m2
01:19 9 °C 7 °C 1010.4 hPa WSW 8 km/h 11 km/h 88% 0.0 mm 0 W/m2
01:24 9 °C 7 °C 1010.4 hPa WSW 5 km/h 11 km/h 88% 0.0 mm 0 W/m2
01:29 9 °C 7 °C 1010.4 hPa WSW 6 km/h 11 km/h 88% 0.0 mm 0 W/m2
01:34 9 °C 8 °C 1010.5 hPa WSW 6 km/h 13 km/h 89% 0.0 mm 0 W/m2
01:39 9 °C 8 °C 1010.5 hPa WSW 8 km/h 11 km/h 89% 0.0 mm 0 W/m2
01:44 9 °C 7 °C 1010.4 hPa WSW 7 km/h 13 km/h 88% 0.0 mm 0 W/m2
01:49 9 °C 7 °C 1010.4 hPa WSW 7 km/h 11 km/h 88% 0.0 mm 0 W/m2
01:54 9 °C 7 °C 1010.4 hPa WSW 6 km/h 11 km/h 89% 0.0 mm 0 W/m2
01:59 9 °C 7 °C 1010.4 hPa WSW 6 km/h 11 km/h 88% 0.0 mm 0 W/m2
02:04 9 °C 7 °C 1010.4 hPa WSW 6 km/h 11 km/h 88% 0.0 mm 0 W/m2
02:09 9 °C 7 °C 1010.4 hPa WSW 6 km/h 11 km/h 88% 0.0 mm 0 W/m2
02:14 9 °C 7 °C 1010.4 hPa WSW 6 km/h 14 km/h 89% 0.0 mm 0 W/m2
02:19 9 °C 7 °C 1010.4 hPa WSW 7 km/h 14 km/h 89% 0.0 mm 0 W/m2
02:24 9 °C 7 °C 1010.4 hPa West 8 km/h 14 km/h 89% 0.0 mm 0 W/m2
02:29 9 °C 8 °C 1010.4 hPa West 8 km/h 18 km/h 90% 0.0 mm 0 W/m2
02:34 9 °C 8 °C 1010.4 hPa West 11 km/h 21 km/h 90% 0.0 mm 0 W/m2
02:39 9 °C 8 °C 1010.4 hPa West 9 km/h 18 km/h 89% 0.0 mm 0 W/m2
02:44 9 °C 8 °C 1010.4 hPa West 9 km/h 19 km/h 89% 0.0 mm 0 W/m2
02:49 9 °C 8 °C 1010.4 hPa West 10 km/h 23 km/h 89% 0.0 mm 0 W/m2
02:54 9 °C 8 °C 1010.4 hPa West 12 km/h 19 km/h 89% 0.0 mm 0 W/m2
02:59 10 °C 8 °C 1010.3 hPa West 11 km/h 26 km/h 89% 0.0 mm 0 W/m2
03:04 10 °C 8 °C 1010.4 hPa West 11 km/h 26 km/h 88% 0.0 mm 0 W/m2
03:09 10 °C 8 °C 1010.4 hPa West 9 km/h 21 km/h 88% 0.0 mm 0 W/m2
03:14 10 °C 8 °C 1010.4 hPa West 11 km/h 21 km/h 88% 0.0 mm 0 W/m2
03:19 10 °C 8 °C 1010.4 hPa West 11 km/h 19 km/h 88% 0.0 mm 0 W/m2
03:24 10 °C 8 °C 1010.4 hPa West 11 km/h 19 km/h 88% 0.0 mm 0 W/m2
03:29 10 °C 8 °C 1010.5 hPa West 10 km/h 19 km/h 88% 0.0 mm 0 W/m2
03:34 10 °C 8 °C 1010.5 hPa West 11 km/h 19 km/h 88% 0.0 mm 0 W/m2
03:39 10 °C 8 °C 1010.4 hPa West 10 km/h 19 km/h 88% 0.0 mm 0 W/m2
03:44 10 °C 8 °C 1010.4 hPa West 11 km/h 21 km/h 88% 0.0 mm 0 W/m2
03:49 10 °C 8 °C 1010.4 hPa West 11 km/h 23 km/h 88% 0.0 mm 0 W/m2
03:54 10 °C 8 °C 1010.4 hPa West 11 km/h 23 km/h 88% 0.0 mm 0 W/m2
03:59 10 °C 8 °C 1010.3 hPa West 10 km/h 18 km/h 88% 0.0 mm 0 W/m2
04:04 10 °C 8 °C 1010.4 hPa West 11 km/h 18 km/h 88% 0.0 mm 0 W/m2
04:09 9 °C 8 °C 1010.4 hPa West 10 km/h 21 km/h 89% 0.0 mm 0 W/m2
04:14 9 °C 8 °C 1010.4 hPa West 14 km/h 23 km/h 89% 0.0 mm 0 W/m2
04:19 10 °C 8 °C 1010.4 hPa West 13 km/h 23 km/h 88% 0.0 mm 0 W/m2
04:24 10 °C 8 °C 1010.3 hPa West 11 km/h 18 km/h 88% 0.0 mm 0 W/m2
04:29 9 °C 8 °C 1010.4 hPa West 12 km/h 21 km/h 88% 0.0 mm 0 W/m2
04:34 9 °C 8 °C 1010.3 hPa West 11 km/h 19 km/h 89% 0.0 mm 0 W/m2
04:39 9 °C 8 °C 1010.3 hPa West 11 km/h 18 km/h 89% 0.0 mm 0 W/m2
04:44 9 °C 8 °C 1010.3 hPa West 10 km/h 18 km/h 89% 0.0 mm 0 W/m2
04:49 9 °C 8 °C 1010.3 hPa West 9 km/h 18 km/h 89% 0.0 mm 0 W/m2
04:54 9 °C 8 °C 1010.2 hPa West 9 km/h 16 km/h 89% 0.0 mm 0 W/m2
04:59 9 °C 8 °C 1010.2 hPa West 9 km/h 16 km/h 89% 0.0 mm 0 W/m2
05:04 9 °C 8 °C 1010.2 hPa West 9 km/h 18 km/h 89% 0.0 mm 0 W/m2
05:09 9 °C 8 °C 1010.2 hPa West 9 km/h 16 km/h 89% 0.0 mm 0 W/m2
05:14 9 °C 7 °C 1010.3 hPa West 9 km/h 16 km/h 89% 0.0 mm 0 W/m2
05:19 9 °C 7 °C 1010.3 hPa West 11 km/h 18 km/h 89% 0.0 mm 0 W/m2
05:24 9 °C 7 °C 1010.3 hPa West 11 km/h 18 km/h 89% 0.0 mm 0 W/m2
05:29 9 °C 7 °C 1010.3 hPa West 12 km/h 23 km/h 89% 0.0 mm 0 W/m2
05:34 9 °C 7 °C 1010.3 hPa West 11 km/h 21 km/h 88% 0.0 mm 0 W/m2
05:39 9 °C 7 °C 1010.3 hPa West 13 km/h 23 km/h 88% 0.0 mm 0 W/m2
05:44 9 °C 7 °C 1010.3 hPa West 12 km/h 21 km/h 88% 0.0 mm 0 W/m2
05:49 9 °C 7 °C 1010.4 hPa West 11 km/h 26 km/h 88% 0.0 mm 0 W/m2
05:54 9 °C 7 °C 1010.3 hPa West 10 km/h 26 km/h 88% 0.0 mm 0 W/m2
05:59 9 °C 7 °C 1010.3 hPa West 11 km/h 19 km/h 89% 0.0 mm 0 W/m2
06:04 9 °C 7 °C 1010.5 hPa West 12 km/h 19 km/h 89% 0.0 mm 5 W/m2
06:09 9 °C 7 °C 1010.5 hPa West 9 km/h 16 km/h 89% 0.0 mm 7 W/m2
06:14 9 °C 7 °C 1010.5 hPa West 9 km/h 16 km/h 89% 0.0 mm 11 W/m2
06:19 9 °C 7 °C 1010.5 hPa West 8 km/h 16 km/h 89% 0.0 mm 12 W/m2
06:24 9 °C 7 °C 1010.6 hPa West 8 km/h 16 km/h 89% 0.0 mm 16 W/m2
06:29 8 °C 7 °C 1010.6 hPa West 6 km/h 16 km/h 89% 0.0 mm 18 W/m2
06:34 8 °C 7 °C 1010.6 hPa West 7 km/h 18 km/h 90% 0.0 mm 25 W/m2
06:39 8 °C 7 °C 1010.5 hPa West 9 km/h 18 km/h 90% 0.0 mm 35 W/m2
06:44 8 °C 7 °C 1010.6 hPa West 8 km/h 13 km/h 90% 0.0 mm 40 W/m2
06:49 8 °C 7 °C 1010.6 hPa West 10 km/h 18 km/h 90% 0.0 mm 54 W/m2
06:54 9 °C 7 °C 1010.6 hPa West 10 km/h 16 km/h 90% 0.0 mm 60 W/m2
06:59 9 °C 7 °C 1010.7 hPa West 10 km/h 18 km/h 90% 0.0 mm 65 W/m2
07:04 9 °C 7 °C 1010.7 hPa West 11 km/h 18 km/h 90% 0.0 mm 79 W/m2
07:09 9 °C 7 °C 1010.8 hPa West 9 km/h 18 km/h 90% 0.0 mm 88 W/m2
07:14 9 °C 8 °C 1010.8 hPa West 9 km/h 16 km/h 90% 0.0 mm 102 W/m2
07:19 9 °C 8 °C 1010.8 hPa West 10 km/h 18 km/h 90% 0.0 mm 118 W/m2
07:24 9 °C 8 °C 1010.9 hPa West 9 km/h 19 km/h 89% 0.0 mm 134 W/m2
07:29 9 °C 8 °C 1010.9 hPa West 10 km/h 18 km/h 89% 0.0 mm 151 W/m2
07:34 9 °C 8 °C 1010.9 hPa West 9 km/h 18 km/h 89% 0.0 mm 162 W/m2
07:39 9 °C 8 °C 1010.9 hPa West 10 km/h 16 km/h 89% 0.0 mm 179 W/m2
07:44 10 °C 8 °C 1010.9 hPa West 10 km/h 16 km/h 89% 0.0 mm 183 W/m2
07:49 10 °C 8 °C 1010.8 hPa West 10 km/h 18 km/h 89% 0.0 mm 199 W/m2
07:54 10 °C 8 °C 1010.9 hPa West 10 km/h 18 km/h 88% 0.0 mm 206 W/m2
07:59 10 °C 8 °C 1011.0 hPa West 10 km/h 21 km/h 88% 0.0 mm 225 W/m2
08:04 11 °C 8 °C 1011.0 hPa West 10 km/h 21 km/h 87% 0.0 mm 239 W/m2
08:09 11 °C 8 °C 1010.9 hPa West 11 km/h 21 km/h 87% 0.0 mm 251 W/m2
08:14 11 °C 9 °C 1010.9 hPa West 11 km/h 19 km/h 86% 0.0 mm 271 W/m2
08:19 11 °C 8 °C 1011.0 hPa West 12 km/h 23 km/h 85% 0.0 mm 271 W/m2
08:24 11 °C 8 °C 1011.0 hPa West 12 km/h 23 km/h 85% 0.0 mm 230 W/m2
08:29 11 °C 8 °C 1010.9 hPa West 12 km/h 21 km/h 85% 0.0 mm 172 W/m2
08:34 11 °C 8 °C 1011.0 hPa West 13 km/h 24 km/h 85% 0.0 mm 179 W/m2
08:39 11 °C 8 °C 1011.0 hPa West 14 km/h 26 km/h 85% 0.0 mm 352 W/m2
08:44 11 °C 9 °C 1011.0 hPa West 12 km/h 19 km/h 84% 0.0 mm 359 W/m2
08:49 12 °C 9 °C 1011.0 hPa West 12 km/h 24 km/h 83% 0.0 mm 359 W/m2
08:54 12 °C 9 °C 1011.0 hPa West 15 km/h 26 km/h 82% 0.0 mm 390 W/m2
08:59 12 °C 9 °C 1011.0 hPa West 14 km/h 24 km/h 81% 0.0 mm 413 W/m2
09:04 12 °C 9 °C 1011.0 hPa West 11 km/h 21 km/h 81% 0.0 mm 410 W/m2
09:09 12 °C 9 °C 1011.1 hPa WNW 14 km/h 23 km/h 79% 0.0 mm 420 W/m2
09:14 12 °C 9 °C 1011.1 hPa West 15 km/h 32 km/h 78% 0.0 mm 434 W/m2
09:19 12 °C 8 °C 1011.2 hPa WNW 14 km/h 24 km/h 77% 0.0 mm 434 W/m2
09:24 12 °C 8 °C 1011.1 hPa WNW 12 km/h 26 km/h 78% 0.0 mm 461 W/m2
09:29 12 °C 9 °C 1011.1 hPa West 13 km/h 23 km/h 78% 0.0 mm 475 W/m2
09:34 13 °C 9 °C 1011.0 hPa WNW 15 km/h 26 km/h 77% 0.0 mm 501 W/m2
09:39 13 °C 9 °C 1011.1 hPa WNW 12 km/h 26 km/h 77% 0.0 mm 499 W/m2
09:44 13 °C 9 °C 1011.1 hPa West 15 km/h 26 km/h 76% 0.0 mm 513 W/m2
09:49 13 °C 8 °C 1011.1 hPa WNW 14 km/h 26 km/h 74% 0.0 mm 533 W/m2
09:54 13 °C 9 °C 1011.1 hPa West 13 km/h 26 km/h 75% 0.0 mm 557 W/m2
09:59 13 °C 9 °C 1011.2 hPa WNW 13 km/h 26 km/h 74% 0.0 mm 728 W/m2
10:04 13 °C 9 °C 1011.2 hPa WNW 13 km/h 26 km/h 73% 0.0 mm 691 W/m2
10:09 13 °C 9 °C 1011.2 hPa West 13 km/h 24 km/h 73% 0.0 mm 691 W/m2
10:14 13 °C 9 °C 1011.3 hPa West 16 km/h 31 km/h 73% 0.0 mm 638 W/m2
10:19 14 °C 9 °C 1011.2 hPa West 14 km/h 31 km/h 72% 0.0 mm 756 W/m2
10:24 14 °C 9 °C 1011.3 hPa WNW 11 km/h 24 km/h 72% 0.0 mm 779 W/m2
10:29 14 °C 8 °C 1011.2 hPa West 12 km/h 27 km/h 71% 0.0 mm 176 W/m2
10:34 13 °C 8 °C 1011.1 hPa West 15 km/h 27 km/h 70% 0.0 mm 299 W/m2
10:39 13 °C 8 °C 1011.2 hPa West 15 km/h 34 km/h 71% 0.0 mm 195 W/m2
10:44 13 °C 8 °C 1011.1 hPa West 14 km/h 34 km/h 71% 0.0 mm 195 W/m2
10:49 13 °C 8 °C 1011.1 hPa WNW 12 km/h 26 km/h 71% 0.0 mm 325 W/m2
10:54 14 °C 8 °C 1011.1 hPa West 13 km/h 19 km/h 71% 0.0 mm 371 W/m2
10:59 14 °C 8 °C 1011.1 hPa West 13 km/h 21 km/h 68% 0.0 mm 311 W/m2
11:04 14 °C 8 °C 1011.0 hPa West 11 km/h 23 km/h 69% 0.0 mm 276 W/m2
11:09 14 °C 8 °C 1010.9 hPa West 15 km/h 24 km/h 69% 0.0 mm 334 W/m2
11:14 14 °C 8 °C 1010.9 hPa West 12 km/h 23 km/h 68% 0.0 mm 334 W/m2
11:19 14 °C 8 °C 1010.8 hPa West 14 km/h 27 km/h 68% 0.0 mm 214 W/m2
11:24 14 °C 8 °C 1010.9 hPa West 15 km/h 24 km/h 67% 0.0 mm 253 W/m2
11:29 14 °C 8 °C 1010.9 hPa WSW 12 km/h 24 km/h 68% 0.0 mm 276 W/m2
11:34 14 °C 8 °C 1010.8 hPa West 11 km/h 18 km/h 69% 0.0 mm 272 W/m2
11:39 14 °C 8 °C 1010.8 hPa West 12 km/h 23 km/h 69% 0.0 mm 352 W/m2
11:44 14 °C 8 °C 1010.8 hPa West 12 km/h 21 km/h 68% 0.0 mm 253 W/m2
11:49 14 °C 8 °C 1010.7 hPa West 12 km/h 18 km/h 69% 0.0 mm 763 W/m2
11:54 14 °C 9 °C 1010.6 hPa West 14 km/h 23 km/h 69% 0.0 mm 796 W/m2
11:59 15 °C 9 °C 1010.5 hPa West 12 km/h 19 km/h 67% 0.0 mm 779 W/m2
12:04 15 °C 9 °C 1010.5 hPa West 12 km/h 21 km/h 66% 0.0 mm 802 W/m2
12:09 16 °C 9 °C 1010.5 hPa West 10 km/h 21 km/h 64% 0.0 mm 802 W/m2
12:14 16 °C 8 °C 1010.5 hPa West 12 km/h 21 km/h 61% 0.0 mm 786 W/m2
12:19 15 °C 8 °C 1010.5 hPa West 10 km/h 19 km/h 62% 0.0 mm 227 W/m2
12:24 14 °C 8 °C 1010.7 hPa West 16 km/h 34 km/h 64% 0.0 mm 155 W/m2
12:29 13 °C 8 °C 1010.7 hPa West 15 km/h 27 km/h 70% 0.0 mm 160 W/m2
12:34 13 °C 8 °C 1010.7 hPa West 11 km/h 23 km/h 75% 0.0 mm 392 W/m2
12:39 12 °C 8 °C 1010.5 hPa West 8 km/h 14 km/h 77% 0.0 mm 392 W/m2
12:44 12 °C 8 °C 1010.5 hPa West 12 km/h 18 km/h 75% 0.0 mm 190 W/m2
12:49 13 °C 8 °C 1010.5 hPa WSW 12 km/h 23 km/h 74% 0.0 mm 336 W/m2
12:54 13 °C 9 °C 1010.4 hPa West 12 km/h 19 km/h 75% 0.0 mm 490 W/m2
12:59 13 °C 8 °C 1010.4 hPa West 11 km/h 21 km/h 72% 0.0 mm 425 W/m2
13:04 14 °C 8 °C 1010.4 hPa WSW 12 km/h 21 km/h 71% 0.0 mm 772 W/m2
13:09 14 °C 9 °C 1010.3 hPa West 17 km/h 31 km/h 68% 0.0 mm 863 W/m2
13:14 15 °C 8 °C 1010.2 hPa West 15 km/h 31 km/h 64% 0.0 mm 919 W/m2
13:19 15 °C 8 °C 1010.2 hPa WSW 18 km/h 32 km/h 62% 0.0 mm 981 W/m2
13:24 16 °C 8 °C 1010.1 hPa West 14 km/h 29 km/h 61% 0.0 mm 954 W/m2
13:29 16 °C 8 °C 1010.2 hPa WNW 18 km/h 32 km/h 60% 0.0 mm 241 W/m2
13:34 14 °C 8 °C 1010.5 hPa WNW 16 km/h 40 km/h 65% 0.0 mm 153 W/m2
13:39 13 °C 8 °C 1010.8 hPa West 15 km/h 34 km/h 70% 0.0 mm 93 W/m2
13:44 12 °C 8 °C 1010.8 hPa West 6 km/h 34 km/h 76% 0.0 mm 279 W/m2
13:49 12 °C 9 °C 1010.4 hPa WNW 4 km/h 8 km/h 82% 0.0 mm 835 W/m2
13:54 12 °C 9 °C 1010.4 hPa West 5 km/h 13 km/h 84% 0.0 mm 835 W/m2
13:59 12 °C 9 °C 1010.3 hPa West 8 km/h 16 km/h 81% 0.0 mm 301 W/m2
14:04 12 °C 9 °C 1010.2 hPa WNW 9 km/h 18 km/h 80% 0.0 mm 496 W/m2
14:09 13 °C 9 °C 1010.1 hPa WNW 10 km/h 19 km/h 78% 0.0 mm 766 W/m2
14:14 14 °C 9 °C 1010.0 hPa West 9 km/h 18 km/h 77% 0.0 mm 768 W/m2
14:19 14 °C 9 °C 1009.9 hPa WNW 9 km/h 18 km/h 73% 0.0 mm 768 W/m2
14:24 14 °C 9 °C 1009.9 hPa West 13 km/h 29 km/h 73% 0.0 mm 758 W/m2
14:29 14 °C 9 °C 1009.9 hPa SW 13 km/h 19 km/h 71% 0.0 mm 209 W/m2
14:34 14 °C 9 °C 1009.9 hPa WSW 11 km/h 26 km/h 73% 0.0 mm 193 W/m2
14:39 13 °C 9 °C 1010.3 hPa WNW 15 km/h 31 km/h 74% 0.0 mm 72 W/m2
14:44 12 °C 8 °C 1010.3 hPa WNW 12 km/h 31 km/h 78% 0.0 mm 97 W/m2
14:49 11 °C 8 °C 1010.2 hPa WNW 6 km/h 14 km/h 82% 0.0 mm 193 W/m2
14:54 11 °C 9 °C 1010.1 hPa WNW 5 km/h 13 km/h 86% 0.0 mm 350 W/m2
14:59 11 °C 9 °C 1009.9 hPa WNW 5 km/h 13 km/h 86% 0.0 mm 350 W/m2
15:04 12 °C 9 °C 1009.9 hPa West 3 km/h 11 km/h 85% 0.0 mm 306 W/m2
15:09 12 °C 9 °C 1009.8 hPa WNW 5 km/h 10 km/h 85% 0.0 mm 517 W/m2
15:14 12 °C 9 °C 1009.6 hPa WNW 1 km/h 6 km/h 83% 0.0 mm 253 W/m2
15:19 12 °C 9 °C 1009.5 hPa WNW 5 km/h 10 km/h 82% 0.0 mm 193 W/m2
15:24 12 °C 9 °C 1009.5 hPa NW 6 km/h 11 km/h 81% 0.0 mm 88 W/m2
15:29 12 °C 9 °C 1009.9 hPa WNW 13 km/h 27 km/h 82% 85.3 mm 25 W/m2
15:34 11 °C 8 °C 1009.9 hPa WNW 10 km/h 19 km/h 84% 12.7 mm 76 W/m2
15:39 11 °C 8 °C 1009.8 hPa WNW 9 km/h 19 km/h 86% 3.3 mm 130 W/m2
15:44 10 °C 8 °C 1009.5 hPa WNW 9 km/h 19 km/h 88% 4.3 mm 127 W/m2
15:49 10 °C 8 °C 1009.5 hPa NW 9 km/h 18 km/h 88% 4.3 mm 102 W/m2
15:54 10 °C 8 °C 1009.5 hPa NW 9 km/h 18 km/h 89% 1.8 mm 46 W/m2
15:59 10 °C 8 °C 1009.5 hPa WNW 9 km/h 16 km/h 89% 23.9 mm 26 W/m2
16:04 10 °C 8 °C 1009.5 hPa WNW 8 km/h 16 km/h 89% 23.1 mm 26 W/m2
16:09 9 °C 8 °C 1009.5 hPa WNW 8 km/h 18 km/h 90% 5.3 mm 26 W/m2
16:14 9 °C 8 °C 1009.6 hPa WNW 7 km/h 18 km/h 90% 3.6 mm 33 W/m2
16:19 10 °C 8 °C 1009.5 hPa WNW 5 km/h 10 km/h 90% 3.6 mm 97 W/m2
16:24 10 °C 8 °C 1009.5 hPa West 4 km/h 13 km/h 91% 2.3 mm 200 W/m2
16:29 10 °C 9 °C 1009.5 hPa West 5 km/h 13 km/h 91% 1.3 mm 207 W/m2
16:34 11 °C 9 °C 1009.4 hPa West 5 km/h 8 km/h 92% 0.8 mm 271 W/m2
16:39 11 °C 9 °C 1009.3 hPa West 6 km/h 10 km/h 92% 0.0 mm 526 W/m2
16:44 11 °C 10 °C 1009.3 hPa WSW 6 km/h 13 km/h 93% 0.0 mm 570 W/m2
16:49 12 °C 11 °C 1009.3 hPa WSW 6 km/h 13 km/h 92% 0.0 mm 570 W/m2
16:54 12 °C 10 °C 1009.3 hPa WNW 5 km/h 8 km/h 90% 0.0 mm 114 W/m2
16:59 12 °C 9 °C 1009.3 hPa WNW 4 km/h 10 km/h 89% 0.0 mm 181 W/m2
17:04 12 °C 9 °C 1009.2 hPa WNW 5 km/h 11 km/h 89% 0.0 mm 193 W/m2
17:09 12 °C 9 °C 1009.1 hPa WNW 6 km/h 11 km/h 89% 0.0 mm 345 W/m2
17:14 12 °C 10 °C 1009.0 hPa WNW 9 km/h 14 km/h 88% 0.0 mm 243 W/m2
17:19 12 °C 9 °C 1009.0 hPa WNW 8 km/h 14 km/h 87% 0.0 mm 105 W/m2
17:24 12 °C 9 °C 1009.0 hPa WNW 7 km/h 14 km/h 87% 0.0 mm 128 W/m2
17:29 12 °C 9 °C 1008.9 hPa NW 8 km/h 18 km/h 86% 0.0 mm 179 W/m2
17:34 11 °C 9 °C 1008.9 hPa WNW 6 km/h 11 km/h 86% 0.0 mm 158 W/m2
17:39 11 °C 9 °C 1008.9 hPa WNW 6 km/h 10 km/h 86% 0.0 mm 107 W/m2
17:44 11 °C 9 °C 1008.8 hPa NW 3 km/h 8 km/h 86% 0.0 mm 91 W/m2
17:49 11 °C 9 °C 1008.6 hPa NW 2 km/h 6 km/h 87% 0.0 mm 84 W/m2
17:54 11 °C 9 °C 1008.5 hPa WNW 1 km/h 6 km/h 87% 0.0 mm 72 W/m2
17:59 11 °C 9 °C 1008.5 hPa WNW 4 km/h 8 km/h 88% 0.0 mm 93 W/m2
18:04 11 °C 9 °C 1008.6 hPa WNW 2 km/h 8 km/h 88% 0.0 mm 93 W/m2
18:09 11 °C 9 °C 1008.6 hPa WNW 1 km/h 6 km/h 88% 0.0 mm 83 W/m2
18:14 11 °C 9 °C 1008.7 hPa WNW 2 km/h 8 km/h 88% 0.0 mm 58 W/m2
18:19 11 °C 9 °C 1008.8 hPa WNW 6 km/h 16 km/h 88% 0.0 mm 42 W/m2
18:24 11 °C 9 °C 1008.7 hPa WNW 4 km/h 16 km/h 87% 0.0 mm 35 W/m2
18:29 11 °C 9 °C 1008.7 hPa NW 1 km/h 5 km/h 87% 0.0 mm 35 W/m2
18:34 11 °C 9 °C 1008.7 hPa NW 1 km/h 6 km/h 88% 0.0 mm 32 W/m2
18:39 11 °C 9 °C 1008.5 hPa NW 1 km/h 6 km/h 88% 0.0 mm 26 W/m2
18:44 11 °C 9 °C 1008.5 hPa NW 1 km/h 6 km/h 88% 0.0 mm 21 W/m2
18:49 11 °C 9 °C 1008.4 hPa NW 1 km/h 6 km/h 89% 0.0 mm 18 W/m2
18:54 11 °C 9 °C 1008.5 hPa NW 1 km/h 8 km/h 89% 0.0 mm 21 W/m2
18:59 11 °C 9 °C 1008.5 hPa NW 1 km/h 8 km/h 89% 0.0 mm 23 W/m2
19:04 11 °C 9 °C 1008.5 hPa NW 1 km/h 6 km/h 89% 0.0 mm 21 W/m2
19:09 11 °C 9 °C 1008.6 hPa NW 2 km/h 6 km/h 89% 0.0 mm 18 W/m2
19:14 11 °C 9 °C 1008.7 hPa NW 3 km/h 8 km/h 89% 0.0 mm 16 W/m2
19:19 11 °C 9 °C 1008.7 hPa NW 1 km/h 5 km/h 89% 0.0 mm 19 W/m2
19:24 11 °C 9 °C 1008.8 hPa WNW 4 km/h 8 km/h 89% 0.0 mm 30 W/m2
19:29 11 °C 9 °C 1008.8 hPa West 2 km/h 8 km/h 89% 0.0 mm 25 W/m2
19:34 11 °C 9 °C 1008.8 hPa West 1 km/h 6 km/h 89% 0.0 mm 26 W/m2
19:39 11 °C 8 °C 1008.8 hPa WNW 3 km/h 10 km/h 88% 0.0 mm 26 W/m2
19:44 11 °C 8 °C 1008.7 hPa WNW 2 km/h 10 km/h 88% 0.0 mm 21 W/m2
19:49 11 °C 8 °C 1008.7 hPa WNW 2 km/h 10 km/h 88% 0.0 mm 32 W/m2
19:54 11 °C 8 °C 1008.8 hPa WNW 2 km/h 6 km/h 88% 0.0 mm 32 W/m2
19:59 11 °C 8 °C 1008.9 hPa WNW 2 km/h 6 km/h 88% 0.0 mm 28 W/m2
20:04 11 °C 8 °C 1008.9 hPa WNW 1 km/h 6 km/h 87% 0.0 mm 26 W/m2
20:09 11 °C 8 °C 1008.9 hPa WNW 3 km/h 6 km/h 87% 0.0 mm 12 W/m2
20:14 11 °C 8 °C 1009.0 hPa WNW 1 km/h 6 km/h 87% 0.0 mm 11 W/m2
20:19 10 °C 8 °C 1009.0 hPa Calm   5 km/h 87% 0.0 mm 7 W/m2
20:24 10 °C 8 °C 1008.9 hPa WNW 2 km/h 8 km/h 88% 0.0 mm 0 W/m2
20:29 10 °C 8 °C 1009.0 hPa WNW 5 km/h 10 km/h 88% 0.0 mm 0 W/m2
20:34 10 °C 8 °C 1009.1 hPa West 5 km/h 10 km/h 88% 0.0 mm 0 W/m2
20:39 10 °C 8 °C 1009.2 hPa West 3 km/h 8 km/h 89% 0.0 mm 0 W/m2
20:44 9 °C 8 °C 1009.3 hPa West 2 km/h 6 km/h 89% 0.0 mm 0 W/m2
20:49 9 °C 8 °C 1009.4 hPa West 1 km/h 6 km/h 89% 0.0 mm 0 W/m2
20:54 9 °C 8 °C 1009.5 hPa Calm   5 km/h 90% 0.0 mm 0 W/m2
20:59 9 °C 8 °C 1009.6 hPa Calm   5 km/h 90% 0.0 mm 0 W/m2
21:04 9 °C 8 °C 1009.7 hPa Calm     90% 0.0 mm 0 W/m2
21:09 9 °C 8 °C 1009.7 hPa Calm     91% 0.0 mm 0 W/m2
21:14 9 °C 8 °C 1009.8 hPa Calm     91% 0.0 mm 0 W/m2
21:19 9 °C 8 °C 1009.8 hPa Calm     91% 0.0 mm 0 W/m2
21:24 9 °C 8 °C 1009.8 hPa West 3 km/h 6 km/h 91% 0.0 mm 0 W/m2
21:29 9 °C 7 °C 1009.9 hPa West 1 km/h 6 km/h 91% 0.0 mm 0 W/m2
21:34 9 °C 7 °C 1009.9 hPa West 3 km/h 6 km/h 91% 0.0 mm 0 W/m2
21:39 9 °C 7 °C 1009.9 hPa West 2 km/h 6 km/h 91% 0.0 mm 0 W/m2
21:44 8 °C 7 °C 1009.9 hPa Calm   5 km/h 91% 0.0 mm 0 W/m2
21:49 8 °C 7 °C 1009.9 hPa West 1 km/h 5 km/h 91% 0.0 mm 0 W/m2
21:54 8 °C 7 °C 1009.9 hPa West 3 km/h 5 km/h 91% 0.0 mm 0 W/m2
21:59 8 °C 7 °C 1009.9 hPa West 3 km/h 8 km/h 91% 0.0 mm 0 W/m2
22:04 8 °C 7 °C 1010.0 hPa West 3 km/h 8 km/h 92% 0.0 mm 0 W/m2
22:09 8 °C 7 °C 1010.0 hPa West 2 km/h 6 km/h 92% 0.0 mm 0 W/m2
22:14 8 °C 7 °C 1010.0 hPa West 2 km/h 6 km/h 92% 0.0 mm 0 W/m2
22:19 8 °C 7 °C 1010.0 hPa West 1 km/h 6 km/h 92% 0.0 mm 0 W/m2
22:24 8 °C 7 °C 1010.0 hPa West 3 km/h 8 km/h 92% 0.0 mm 0 W/m2
22:29 8 °C 7 °C 1010.0 hPa West 5 km/h 11 km/h 92% 0.0 mm 0 W/m2
22:34 8 °C 7 °C 1010.0 hPa West 5 km/h 11 km/h 92% 0.0 mm 0 W/m2
22:39 8 °C 7 °C 1010.1 hPa West 5 km/h 10 km/h 92% 0.0 mm 0 W/m2
22:44 8 °C 7 °C 1010.1 hPa WSW 3 km/h 10 km/h 93% 0.0 mm 0 W/m2
22:49 8 °C 7 °C 1010.1 hPa WSW 3 km/h 8 km/h 92% 0.0 mm 0 W/m2
22:54 8 °C 7 °C 1010.1 hPa WSW 4 km/h 8 km/h 92% 0.0 mm 0 W/m2
22:59 8 °C 7 °C 1010.1 hPa WSW 3 km/h 6 km/h 93% 0.0 mm 0 W/m2
23:04 8 °C 7 °C 1010.0 hPa WSW 2 km/h 6 km/h 93% 0.0 mm 0 W/m2
23:09 8 °C 7 °C 1010.0 hPa WSW 1 km/h 6 km/h 93% 0.0 mm 0 W/m2
23:14 8 °C 7 °C 1010.1 hPa Calm   5 km/h 93% 0.0 mm 0 W/m2
23:19 8 °C 7 °C 1010.1 hPa Calm     93% 0.0 mm 0 W/m2
23:24 8 °C 7 °C 1010.1 hPa Calm     93% 0.0 mm 0 W/m2
23:29 8 °C 7 °C 1010.2 hPa Calm     93% 0.0 mm 0 W/m2
23:34 7 °C 6 °C 1010.2 hPa Calm     93% 0.0 mm 0 W/m2
23:39 7 °C 6 °C 1010.2 hPa Calm   3 km/h 93% 0.0 mm 0 W/m2
23:44 7 °C 6 °C 1010.2 hPa Calm     93% 0.0 mm 0 W/m2
23:49 7 °C 6 °C 1010.3 hPa Calm     93% 0.0 mm 0 W/m2
23:54 7 °C 6 °C 1010.3 hPa Calm     93% 0.0 mm 0 W/m2
23:59 7 °C 6 °C 1010.3 hPa Calm     93% 0.0 mm 0 W/m2
Compliments of Weather Underground - 4.25 mb